TimeEDT,TemperatureF,Dew PointF,Humidity,Sea Level PressureIn,VisibilityMPH,Wind Direction,Wind SpeedMPH,Gust SpeedMPH,PrecipitationIn,Events,Conditions,WindDirDegrees,DateUTC
12:53 AM,69.1,64.0,84,29.94,10.0,West,8.1,-,N/A,,Partly Cloudy,260,2014-03-30 04:53:00
1:53 AM,66.0,60.1,81,29.94,10.0,WNW,9.2,-,N/A,,Scattered Clouds,290,2014-03-30 05:53:00
2:53 AM,64.0,60.1,87,29.93,10.0,West,6.9,-,N/A,,Partly Cloudy,270,2014-03-30 06:53:00
3:53 AM,63.0,60.1,90,29.93,10.0,West,8.1,-,N/A,,Mostly Cloudy,280,2014-03-30 07:53:00
4:53 AM,63.0,57.9,84,29.94,10.0,NW,10.4,-,N/A,,Partly Cloudy,310,2014-03-30 08:53:00
5:53 AM,61.0,52.0,72,29.96,10.0,NW,17.3,23.0,N/A,,Partly Cloudy,320,2014-03-30 09:53:00
6:53 AM,59.0,48.0,67,29.99,10.0,NW,16.1,-,N/A,,Partly Cloudy,310,2014-03-30 10:53:00
7:53 AM,57.9,46.0,65,30.03,10.0,NW,12.7,-,N/A,,Partly Cloudy,320,2014-03-30 11:53:00
8:53 AM,59.0,46.9,64,30.05,10.0,NW,15.0,-,N/A,,Partly Cloudy,320,2014-03-30 12:53:00
9:53 AM,61.0,46.9,60,30.07,10.0,NW,13.8,-,N/A,,Partly Cloudy,310,2014-03-30 13:53:00
10:53 AM,63.0,43.0,48,30.08,10.0,NW,15.0,-,N/A,,Clear,320,2014-03-30 14:53:00
11:53 AM,64.9,44.1,47,30.08,10.0,WNW,9.2,19.6,N/A,,Partly Cloudy,290,2014-03-30 15:53:00
12:53 PM,68.0,42.1,39,30.06,10.0,WNW,15.0,20.7,N/A,,Clear,290,2014-03-30 16:53:00
1:53 PM,70.0,37.0,30,30.05,10.0,NW,12.7,-,N/A,,Partly Cloudy,310,2014-03-30 17:53:00
2:53 PM,73.0,35.1,25,30.02,10.0,NW,16.1,-,N/A,,Partly Cloudy,320,2014-03-30 18:53:00
3:53 PM,73.9,34.0,23,30.01,10.0,WNW,13.8,-,N/A,,Partly Cloudy,290,2014-03-30 19:53:00
4:53 PM,75.0,32.0,21,29.99,10.0,WNW,15.0,20.7,N/A,,Partly Cloudy,290,2014-03-30 20:53:00
5:53 PM,75.0,35.1,23,29.99,10.0,NW,12.7,-,N/A,,Scattered Clouds,310,2014-03-30 21:53:00
6:53 PM,73.0,39.0,29,30.00,10.0,NW,11.5,-,N/A,,Mostly Cloudy,310,2014-03-30 22:53:00
7:53 PM,69.1,39.0,33,30.03,10.0,WNW,9.2,-,N/A,,Mostly Cloudy,300,2014-03-30 23:53:00
8:53 PM,66.9,43.0,42,30.05,10.0,WNW,9.2,-,N/A,,Mostly Cloudy,300,2014-03-31 00:53:00
9:53 PM,64.0,50.0,60,30.06,10.0,NW,10.4,-,N/A,,Mostly Cloudy,310,2014-03-31 01:53:00
10:53 PM,60.1,48.9,67,30.09,10.0,WNW,6.9,-,N/A,,Mostly Cloudy,290,2014-03-31 02:53:00
11:53 PM,59.0,50.0,72,30.10,10.0,WNW,4.6,-,N/A,,Mostly Cloudy,300,2014-03-31 03:53:00